Change the Weather History Date:

Thursday, November 1, 2012

  Actual Average Record
Temperature  
Mean Temperature 42 °F 43 °F  
Max Temperature 50 °F 54 °F 78 °F (1990)
Min Temperature 33 °F 32 °F 6 °F (1911)
Degree Days  
Heating Degree Days 23 22  
Month to date heating degree days 23 22  
Since 1 July heating degree days 691 663  
Cooling Degree Days 0 0  
Month to date cooling degree days 0 0  
Year to date cooling degree days 1236 824  
Moisture  
Dew Point 32 °F    
Average Humidity 66    
Maximum Humidity 89    
Minimum Humidity 42    
Precipitation  
Precipitation 0.00 in 0.05 in 0.80 in (1957)
Month to date precipitation 0.00 0.05  
Year to date precipitation 21.08 20.34  
Snow  
Snow 0.00 in - 6.00 in (1928)
Month to date snowfall 0.0  
Since 1 July snowfall 0.7  
Since 1 September snowfall 0.7  
Snow Depth 0.00 in    
Sea Level Pressure  
Sea Level Pressure 30.06 in    
Wind  
Wind Speed 10 mph (NNE)    
Max Wind Speed 20 mph    
Max Gust Speed 24 mph    
Visibility 9 miles    
Events      
T = Trace of Precipitation, MM = Missing Value Source: NWS Daily Summary

Daily Weather History Graph

Daily Weather History Graph

Search for Another Location

Airport or City:

Trip Planner

Search our weather history database for the weather conditions in past years. The results will help you decide how hot, cold, wet, or windy it might be!

Date:

Astronomy

Nov. 01, 2012 Rise Set
Actual Time 8:08 AM CDT 6:21 PM CDT
Civil Twilight 7:38 AM CDT 6:51 PM CDT
Nautical Twilight 7:04 AM CDT 7:25 PM CDT
Astronomical Twilight 6:31 AM CDT 7:59 PM CDT
Moon 8:16 PM CDT 10:46 AM CDT
Length of Visible Light 11h 13m
Length of Day
10h 13m
Waning Gibbous, 93% of the Moon is Illuminated
Nov 1
Waning Gibbous
Nov 6
Last Quarter
Nov 13
New
Nov 20
First Quarter
Nov 28
Full

Hourly Weather History & Observations

Time (CDT) Temp. Windchill Dew Point Humidity Pressure Visibility Wind Dir Wind Speed Gust Speed Precip Events Conditions
12:53 AM 37.9 °F 33.5 °F 33.1 °F 83% 30.01 in 10.0 mi NW 5.8 mph - N/A   Clear
1:53 AM 42.1 °F 35.7 °F 37.9 °F 85% 30.02 in 9.0 mi NNW 11.5 mph - N/A   Clear
2:53 AM 39.9 °F 32.9 °F 36.0 °F 86% 30.02 in 8.0 mi North 11.5 mph - N/A   Clear
3:53 AM 39.9 °F 32.9 °F 36.0 °F 86% 30.04 in 6.0 mi North 11.5 mph - N/A   Clear
4:27 AM 39.2 °F 32.0 °F 37.4 °F 93% 30.03 in 5.0 mi North 11.5 mph - N/A   Scattered Clouds
4:36 AM 42.8 °F 35.8 °F 39.2 °F 87% 30.03 in 6.0 mi North 13.8 mph - N/A   Mostly Cloudy
5:53 AM 43.0 °F 36.4 °F 39.0 °F 86% 30.07 in 10.0 mi North 12.7 mph - N/A   Overcast
6:53 AM 42.1 °F 34.5 °F 37.9 °F 85% 30.09 in 10.0 mi North 15.0 mph - N/A   Overcast
7:53 AM 41.0 °F 33.5 °F 37.9 °F 89% 30.09 in 10.0 mi North 13.8 mph - N/A   Overcast
8:53 AM 39.9 °F 32.5 °F 35.1 °F 83% 30.11 in 10.0 mi NNE 12.7 mph - N/A   Overcast
9:06 AM 39.2 °F 32.5 °F 35.6 °F 87% 30.08 in 10.0 mi NNE 10.4 mph - N/A   Overcast
9:53 AM 39.9 °F 33.4 °F 33.1 °F 77% 30.13 in 10.0 mi North 10.4 mph - N/A   Overcast
10:22 AM 39.2 °F 33.6 °F 32.0 °F 75% 30.12 in 10.0 mi NNE 8.1 mph - N/A   Overcast
10:53 AM 39.9 °F 34.5 °F 33.1 °F 77% 30.14 in 10.0 mi NNW 8.1 mph - N/A   Overcast
11:53 AM 42.1 °F 37.1 °F 32.0 °F 67% 30.13 in 10.0 mi NE 8.1 mph - N/A   Overcast
12:14 PM 42.8 °F 38.0 °F 32.0 °F 66% 30.10 in 10.0 mi NE 8.1 mph - N/A   Scattered Clouds
12:53 PM 45.0 °F 41.8 °F 32.0 °F 60% 30.11 in 10.0 mi NE 5.8 mph - N/A   Clear
1:53 PM 46.0 °F 42.5 °F 30.9 °F 56% 30.07 in 10.0 mi North 6.9 mph - N/A   Clear
2:53 PM 48.9 °F - 30.0 °F 48% 30.05 in 10.0 mi Variable 5.8 mph - N/A   Clear
3:53 PM 48.9 °F - 28.9 °F 46% 30.03 in 10.0 mi ENE 4.6 mph - N/A   Clear
4:53 PM 48.0 °F - 27.0 °F 44% 30.02 in 10.0 mi East 8.1 mph - N/A   Clear
5:53 PM 45.0 °F 41.8 °F 27.0 °F 49% 30.03 in 10.0 mi NE 5.8 mph - N/A   Clear
6:53 PM 42.1 °F 39.2 °F 27.0 °F 55% 30.02 in 10.0 mi ENE 4.6 mph - N/A   Clear
7:53 PM 39.0 °F 34.0 °F 26.1 °F 60% 30.02 in 10.0 mi ENE 6.9 mph - N/A   Clear
8:53 PM 39.0 °F 32.8 °F 27.0 °F 62% 30.01 in 10.0 mi East 9.2 mph - N/A   Clear
9:53 PM 37.9 °F 31.5 °F 26.1 °F 62% 30.03 in 10.0 mi East 9.2 mph - N/A   Clear
10:53 PM 36.0 °F 28.0 °F 25.0 °F 64% 30.06 in 10.0 mi East 11.5 mph - N/A   Clear
11:53 PM 35.1 °F 26.9 °F 25.0 °F 67% 30.05 in 10.0 mi East 11.5 mph - N/A   Clear